Tracking 25710 objects as of 5-Jul-2022
HD Live streaming from Space Station
objects crossing your sky now

STARLINK-3415

Track STARLINK-3415 now!
10-day predictions
STARLINK-3415 is classified as:


NORAD ID: 51472
Int'l Code: 2022-010S
Perigee: 545.3 km
Apogee: 548.5 km
Inclination: 53.2 °
Period: 95.4 minutes
Semi major axis: 6917 km
RCS: Unknown
Launch date: February 3, 2022
Source: United States (US)
Launch site: AIR FORCE EASTERN TEST RANGE (AFETR)
aabbcc
Your satellite tracking list
Your tracking list is empty




NASA's NSSDC Master Catalog

Two Line Element Set (TLE):
1 51472U 22010S   22185.73307726 -.00001271  00000-0 -61763-4 0  9997
2 51472  53.2189 192.3836 0002360  45.9451 314.1735 15.08832565 23934
Source of the keplerian elements: AFSPC